Home   Weather   Cham   Past weeks

Flag for Switzerland Past Weather in Cham, Zug, Switzerland — Yesterday and Last 2 Weeks

Now
45 °F

Cool.


Feels Like: 44 °F
Forecast: 31 / 67 °F
Wind: 3 mph from Northeast

Location: Zuerich-Fluntern

Current Time: Apr 23, 2017 at 11:59:43 am

Latest Report: Apr 23, 2017 at 11:00 am


Visibility: N/A

Pressure: 30.25 "Hg

Humidity: 58%

Dew Point: 31 °F

Location of ChamLocation

Past Weather in Cham — Graph

°F

Cham Temperature Yesterday

Maximum temperature yesterday: 57 °F (at 2:00 pm)
Minimum temperature yesterday: 37 °F (at 6:00 am)
Average temperature yesterday: 48 °F

High & Low Weather Summary for the Past Weeks

 TemperatureHumidityPressure
High73 °F (Apr 9, 5:00 pm)96% (Apr 19, 2:00 pm)30.57 "Hg (Apr 19, 2:00 pm)
Low28 °F (Apr 20, 6:00 am)24% (Apr 8, 7:00 pm)29.93 "Hg (Apr 13, 6:00 pm)
Average48 °F62%30.21 "Hg
* Reported Apr 8 10:00 am — Apr 23 10:00 am, Cham, Weather by CustomWeather, © 2017

Note: Actual official high and low records may vary slightly from our data, if they occured in-between our weather recording intervals... More about our weather records

Advertising

Cham Weather History for the Previous 24 Hours

Scroll right to see more
 ConditionsComfort  
Time TempWeatherWind HumidityBarometerVisibility
10:00 am
Sun, Apr 23
46 °FCool.6 mph56%30.25 "HgN/A
9:00 am43 °FQuite cool.5 mph64%30.26 "HgN/A
8:00 am42 °FQuite cool.2 mph71%30.26 "HgN/A
7:00 am42 °FQuite cool.1 mph66%30.25 "HgN/A
6:00 am41 °FQuite cool.1 mph64%30.24 "HgN/A
5:00 am42 °FQuite cool.1 mph67%30.24 "HgN/A
4:00 am42 °FQuite cool.5 mph66%30.24 "HgN/A
3:00 am43 °FQuite cool.8 mph74%30.24 "HgN/A
2:00 am44 °FQuite cool.12 mph74%30.24 "HgN/A
1:00 am48 °FCool.6 mph68%30.22 "HgN/A
12:00 am48 °FCool.3 mph65%30.22 "HgN/A
11:00 pm
Sat, Apr 22
49 °FCool.2 mph60%30.22 "HgN/A
10:00 pm49 °FCool.3 mph63%30.21 "HgN/A
9:00 pm51 °FCool.3 mph52%30.19 "HgN/A
8:00 pm52 °FPartly sunny.2 mph53%30.18 "HgN/A
7:00 pm53 °FCool.5 mph49%30.17 "HgN/A
6:00 pm55 °FCool.6 mph43%30.16 "HgN/A
5:00 pm57 °FRefreshingly cool.6 mph42%30.16 "HgN/A
4:00 pm57 °FRefreshingly cool.7 mph41%30.17 "HgN/A
3:00 pm57 °FRefreshingly cool.9 mph39%30.19 "HgN/A
2:00 pm57 °FPassing clouds.8 mph37%30.20 "HgN/A
1:00 pm56 °FRefreshingly cool.8 mph41%30.23 "HgN/A
12:00 pm54 °FCool.7 mph40%30.26 "HgN/A
11:00 am52 °FCool.5 mph41%30.28 "HgN/A
Weather by CustomWeather, © 2017

See weather overviewHow to use our weather pages